Home > Weather > Wuhan > Past weeks

Flag for China Past Weather in Wuhan, Hubei, China — Yesterday and Last 2 Weeks

Now
68 °F

Fog.


Feels Like: 68 °F
Forecast: 65 / 80 °F
Wind: 6 mph from Southwest

Location: Wuhan Airport

Current Time: May 25, 2016 at 1:47:03 AM

Latest Report: May 25, 2016 at 1:00 AM


Visibility: 2 mi

Pressure: 29.74 "Hg

Humidity: 94%

Dew Point: 66 °F

Location of WuhanLocation

Past Weather in Wuhan — Graph

°F

Wuhan Temperature Yesterday

Maximum temperature yesterday: 79 °F (at 3:00 PM)
Minimum temperature yesterday: 64 °F (at 6:00 AM)
Average temperature yesterday: 71 °F

High & Low Weather Summary for the Past Weeks

 TemperatureHumidityPressure
High88 °F (May 12, 2:00 PM)100% (May 11, 6:00 AM)30.12 "Hg (May 11, 6:00 AM)
Low57 °F (May 15, 7:00 AM)30% (May 16, 4:00 PM)29.68 "Hg (May 11, 4:00 PM)
Average70 °F76%29.90 "Hg
* Reported May 10 12:00 AM — May 25 12:00 AM, Wuhan, Weather by CustomWeather, © 2016

Note: Actual official high and low records may vary slightly from our data, if they occured in-between our weather recording intervals... More about our weather records

Advertising

Wuhan Weather History for the Previous 24 Hours

Scroll right to see more
 ConditionsComfort  
Time TempWeatherWind HumidityBarometerVisibility
12:00 AM
Wed, May 25
68 °FFog.6 mph100%29.74 "Hg2 mi
11:00 PM
Tue, May 24
72 °FFog.3 mph83%29.74 "Hg2 mi
10:00 PM70 °FFog.No wind83%29.77 "Hg3 mi
9:00 PM70 °FClear.1 mph88%29.74 "Hg4 mi
8:00 PM75 °FHaze.3 mph74%29.74 "Hg3 mi
7:00 PM75 °FHaze.3 mph74%29.74 "Hg3 mi
6:00 PM77 °FClear.3 mph65%29.74 "Hg4 mi
5:00 PM79 °FClear.6 mph61%29.74 "Hg4 mi
4:00 PM77 °FClear.8 mph65%29.74 "Hg4 mi
3:00 PM79 °FHaze.6 mph61%29.77 "Hg3 mi
2:00 PM77 °FClear.6 mph65%29.80 "Hg4 mi
1:00 PM77 °FClear.6 mph65%29.80 "Hg4 mi
12:00 PM75 °FClear.3 mph69%29.83 "Hg4 mi
11:00 AM73 °FFog.3 mph74%29.86 "Hg2 mi
10:00 AM72 °FFog.3 mph83%29.89 "Hg2 mi
9:00 AM70 °FFog.1 mph88%29.89 "Hg2 mi
8:00 AM68 °FFog.1 mph88%29.89 "Hg1 mi
7:00 AM66 °FFog.1 mph94%29.89 "Hg1 mi
6:00 AM64 °FFog.3 mph100%29.86 "Hg1 mi
5:00 AM66 °FFog.1 mph94%29.86 "Hg1 mi
4:00 AM66 °FFog.1 mph94%29.86 "Hg1 mi
3:00 AM66 °FFog.1 mph94%29.86 "Hg1 mi
2:00 AM66 °FFog.1 mph94%29.89 "Hg2 mi
1:00 AM66 °FFog.3 mph94%29.89 "Hg2 mi
Weather by CustomWeather, © 2016

See weather overviewHow to use our weather pages